sat.trackr.live / text

‹ back to catalog

TJS-23

NORAD 67226 · 2025-306A

PAYLOAD ACTIVE UNKNOWN

§ Identity

Operator
Country
PRC
Launch date
2025-12-20
Launch site
WSC
Launch vehicle
Mass (kg)
RCS (m²)

Purposes: comms

External: N2YO · Heavens-Above · Gunter

§ Orbital elements

Epoch: 2026-09-19T08:12:16.497504Z

Period
1,436.04 min
Inclination
5.3805°
Eccentricity
0.0004673
Mean motion
1.00275651 rev/d
Perigee alt
35,765.8 km
Apogee alt
35,805.2 km
Semi-major
42,163.6 km
B*
0.0000e+0
RAAN
297.0417°
Arg perigee
256.8335°
Mean anomaly
103.0107°
Rev number
283

§ Raw data

TJS-231 67226U 25306A   26262.34185761  .00000012  00000+0  00000+0 0  99932 67226   5.3805 297.0417 0004673 256.8335 103.0107  1.00275651  2830

JSON: /api/v1/satellites/67226 · /tle

For live sub-satellite position, see the globe view (requires WebGL).

§ Visibility from observer

Set your observer location to see the next 7 days of passes ≥ 10°. The values pass through the URL so the page stays shareable.

No JS? Fill the form by hand. The geolocation button needs JavaScript.